Dewpoint
57 57 58 58 58 58 57 58 57 58 57 59 59 59 59 59 59 54 18 30 40 69 67 54 49 48 49 52 58 60 54 53 52 44 36 50 48 47 50 55 56 57 59 61 63
57 56 57 57 57 58 57 57 57 58 57 57 59 59 59 59 49 33 48 64 67 70 41 42 45 47 46 50 58 55 52 52 52 39 39 49 47 47 53 54 55 57 60 62 64
56 56 56 56 56 57 57 57 57 58 58 58 58 59 59 57 37 14 63 68 70 67 31 30 31 32 36 40 49 51 45 44 42 27 25 41 46 51 53 52 54 57 58 63 65
56 55 55 56 56 56 57 57 58 59 59 59 58 58 58 54 31 41 69 68 70 45 30 29 38 35 30 30 34 28 42 32 25 23 24 30 48 52 52 53 54 58 59 63 64
55 55 55 55 55 56 56 57 57 59 58 58 58 58 53 34 19 59 70 68 45 30 23 33 42 37 30 27 26 27 27 26 28 25 22 23 46 52 52 54 55 57 61 61 62
54 55 55 55 55 56 56 56 57 58 58 58 58 58 49 40 52 57 49 36 27 26 25 32 40 35 29 25 25 25 25 25 28 26 26 20 36 49 54 54 55 57 59 60 61
54 54 54 54 54 55 55 55 56 57 58 58 58 55 48 36 47 48 37 33 31 30 36 41 41 28 29 25 27 23 24 26 27 28 23 20 28 47 53 54 54 55 57 59 60
54 54 54 54 54 54 55 55 56 57 58 58 58 54 38 47 43 40 32 29 31 29 38 39 36 30 27 28 26 23 26 25 25 22 21 19 18 51 53 53 53 54 54 56 59
54 54 54 54 54 54 54 55 56 59 59 59 54 50 40 49 37 36 33 33 32 34 34 33 32 27 27 25 24 23 24 25 24 21 19 22 20 51 52 52 52 53 54 54 54
54 54 54 53 53 53 53 55 60 58 58 56 52 41 43 36 37 36 36 37 37 36 33 34 28 25 25 25 19 22 16 19 23 18 23 21 21 50 52 51 52 52 53 53 54
53 53 53 53 53 52 51 52 35 37 49 21 35 39 41 42 36 36 36 36 38 34 29 33 27 26 25 25 26 28 20 18 23 21 22 23 29 38 51 51 51 51 52 52 53
53 53 53 52 52 53 50 42 35 32 30 37 39 39 38 39 30 32 34 28 28 27 30 26 27 29 31 30 28 26 18 20 20 20 20 26 27 36 45 50 51 51 52 52 53
52 52 52 52 51 51 46 45 46 45 33 31 36 35 32 33 28 30 29 27 28 28 25 24 26 30 31 23 20 23 20 22 23 22 19 25 27 34 49 55 54 52 52 53 54
51 52 51 51 36 40 46 46 42 37 27 24 29 29 23 25 20 27 29 26 28 24 26 24 26 25 22 24 23 35 24 23 22 20 16 22 22 32 42 54 57 58 56 55 56
51 51 51 50 40 29 41 34 37 32 17 27 28 27 21 19 20 21 28 26 25 24 23 21 21 21 25 23 22 21 25 24 25 20 29 21 20 31 46 52 55 58 60 61 62
50 50 50 45 43 40 38 34 34 25 17 26 21 20 19 20 19 24 25 25 26 25 25 22 22 19 21 24 24 26 25 25 28 23 20 21 22 27 43 51 53 57 59 61 61
50 49 49 44 12 31 37 38 28 24 24 21 16 18 20 19 19 21 21 21 19 16 17 21 21 22 20 20 24 24 22 20 22 23 22 26 27 29 37 48 55 55 58 59 59
48 49 48 46 43 38 41 35 31 24 27 25 16 18 18 16 16 18 19 18 19 19 19 17 19 24 25 21 21 23 21 21 22 20 22 29 32 34 40 47 51 56 57 57 57
48 41 40 41 44 38 38 33 29 31 32 27 16 16 16 15 15 18 17 17 18 19 16 21 21 25 25 23 22 25 22 23 21 25 19 23 34 39 42 46 48 50 54 55 56
43 42 40 36 41 41 36 34 33 35 28 25 18 17 15 16 14 16 18 18 17 20 20 22 23 24 26 24 25 22 22 18 20 19 22 24 31 34 37 42 46 50 53 55 56
40 28 23 41 42 37 32 33 34 32 26 25 29 26 20 26 14 15 16 19 18 22 22 25 25 22 26 24 23 23 23 26 23 23 22 23 30 37 37 42 45 49 52 53 52
34 7 27 36 36 36 32 32 33 25 22 20 26 27 24 27 26 26 18 20 24 25 21 28 22 22 22 29 27 25 24 27 26 26 26 24 23 33 37 40 44 45 47 51 52
32 33 38 31 29 29 30 27 27 25 24 21 23 27 27 25 24 29 29 31 31 28 27 28 25 22 20 20 22 25 28 31 29 28 27 25 25 32 39 40 42 44 49 50 51
35 31 40 38 32 30 27 25 24 24 23 21 21 27 25 23 25 27 29 29 31 37 53 40 28 22 18 17 23 25 27 28 30 28 28 26 27 30 39 43 47 48 50 50 52
37 32 42 39 37 41 39 28 25 25 21 25 27 26 25 26 26 27 30 29 30 44 31 25 26 29 26 24 26 28 28 27 23 25 20 21 26 26 36 43 47 48 49 51 52
36 39 38 38 41 37 34 31 31 30 23 20 24 26 25 30 25 30 30 33 27 30 28 30 25 30 29 31 30 30 30 29 28 25 24 23 22 31 39 46 47 47 46 48 50
39 38 39 38 35 34 33 32 31 34 31 26 27 35 34 35 35 32 31 32 33 30 32 34 34 28 29 32 29 28 28 28 31 33 28 24 25 45 45 46 47 46 47 50 50
Lifted_Index
16 16 15 14 14 13 14 14 15 14 14 14 13 13 13 12 11 9 8 9 8 7 6 5 4 2 1 0 -1 -1 -1 -2 -3 -2 -1 -2 -2 -1 -2 -2 -2 -2 -2 -2 -2
17 17 16 15 14 13 13 14 15 14 14 14 13 13 13 12 10 9 9 9 8 7 7 6 5 3 2 1 1 -0 -0 -1 -1 -0 -0 -1 -1 -1 -2 -2 -2 -2 -2 -2 -3
18 18 17 16 15 13 13 14 14 14 14 14 13 13 13 11 9 8 8 9 8 8 8 6 5 4 3 3 2 2 2 1 1 1 1 0 -0 -1 -2 -2 -3 -2 -3 -3 -3
18 18 18 17 16 14 13 14 14 14 14 14 14 13 12 10 7 6 7 8 8 8 7 6 5 4 3 4 4 4 3 3 3 3 2 2 -0 -1 -2 -3 -3 -3 -3 -3 -4
19 19 18 18 17 15 13 13 14 14 14 14 14 13 11 8 6 6 6 7 8 8 7 6 5 4 3 3 4 4 3 3 3 3 3 2 0 -1 -2 -2 -2 -2 -3 -3 -3
19 19 18 18 17 15 13 13 14 14 14 14 14 12 10 8 7 7 8 8 8 8 7 6 5 4 4 3 3 3 3 2 3 3 3 2 1 -1 -2 -2 -2 -2 -2 -3 -3
19 19 18 18 17 15 14 14 14 14 14 14 13 12 9 8 7 8 9 9 9 8 7 6 5 5 4 4 3 3 2 2 2 3 3 3 2 -0 -2 -2 -2 -2 -2 -2 -3
18 18 18 18 17 15 14 14 14 14 14 14 12 11 8 7 8 9 9 9 9 8 7 6 6 5 4 4 3 2 2 1 2 2 2 2 1 -1 -2 -2 -2 -1 -1 -2 -2
18 18 18 17 17 15 13 13 13 13 13 12 11 9 8 8 8 8 9 9 8 8 7 7 6 5 4 2 1 1 1 1 1 1 1 2 1 -1 -2 -2 -2 -2 -1 -1 -2
18 18 17 17 16 14 12 11 11 11 11 11 9 8 7 8 8 8 8 8 8 7 7 6 6 4 3 2 1 1 1 1 1 1 1 1 1 -0 -2 -2 -2 -2 -2 -2 -3
18 17 17 16 15 13 11 10 10 10 10 9 9 8 8 8 8 7 7 7 7 6 6 6 5 4 3 2 1 1 1 1 0 1 1 1 2 1 -1 -2 -2 -2 -3 -3 -3
18 17 17 16 14 12 10 10 10 10 9 9 8 8 8 8 8 7 7 7 6 5 5 5 4 4 3 3 2 2 1 1 0 1 1 1 2 1 -0 -1 -2 -2 -3 -3 -4
18 17 16 15 13 10 9 10 10 9 8 8 8 8 8 8 8 7 7 7 6 5 5 5 4 4 4 3 3 2 1 1 1 1 1 1 1 0 -1 -2 -2 -2 -3 -3 -4
18 17 17 15 12 9 9 9 10 9 7 7 7 8 8 8 7 8 8 7 6 6 5 5 4 4 4 4 3 3 2 2 2 1 1 1 0 -1 -2 -3 -3 -3 -3 -4 -4
17 17 17 15 12 10 9 9 9 8 5 5 7 8 8 7 7 7 8 7 7 6 5 5 4 4 4 4 3 3 3 2 2 1 1 1 1 -0 -2 -3 -4 -4 -4 -4 -4
17 17 16 15 13 10 9 9 8 6 4 5 6 7 7 7 7 7 7 7 6 6 5 4 4 4 4 4 3 3 2 2 2 1 1 1 1 0 -1 -3 -4 -5 -5 -5 -5
17 16 16 15 13 11 9 8 6 5 5 5 6 6 6 6 7 7 7 6 6 5 5 4 4 4 3 3 3 3 2 1 1 1 1 1 1 1 -0 -2 -4 -5 -6 -6 -6
16 15 14 14 13 11 9 7 5 5 5 6 6 6 6 6 6 6 6 5 5 5 4 4 4 3 3 2 3 3 2 1 1 1 1 1 1 1 1 -1 -3 -5 -5 -6 -6
15 14 12 13 13 12 9 7 5 5 5 6 6 5 5 6 6 5 5 5 5 4 4 3 3 3 3 3 3 3 3 3 2 1 1 1 1 1 1 -0 -2 -4 -5 -5 -5
13 12 11 12 12 11 8 7 5 5 5 5 5 5 5 5 5 5 5 4 4 4 3 3 3 3 3 3 3 3 3 3 3 2 1 1 1 1 1 -0 -1 -3 -4 -4 -4
11 10 10 11 11 9 8 6 6 5 5 5 5 4 4 5 5 5 4 4 4 4 3 2 2 2 2 2 2 2 3 3 3 2 1 1 2 1 0 -0 -1 -2 -3 -3 -3
10 9 10 10 9 8 7 6 6 5 5 5 5 4 4 5 5 5 4 4 4 3 3 2 2 2 2 2 2 2 3 3 3 3 2 2 2 1 0 -0 -1 -2 -2 -3 -3
9 9 9 9 8 7 7 6 6 5 5 5 4 4 4 4 5 5 5 4 4 3 2 1 1 1 1 1 2 2 2 3 3 3 3 3 2 1 1 0 -1 -1 -2 -2 -2
9 8 8 8 7 7 7 6 6 6 5 5 5 4 3 3 4 4 4 4 3 3 2 1 1 1 1 2 2 2 2 2 2 3 3 3 3 2 1 0 -0 -1 -1 -2 -2
10 9 7 7 7 6 6 6 6 6 6 5 5 4 3 3 3 3 3 3 3 2 2 1 1 1 2 2 2 2 2 2 3 3 3 3 3 3 2 1 -0 -1 -1 -2 -2
10 9 8 6 6 6 6 6 5 5 6 5 5 5 4 3 3 3 3 3 2 2 2 2 2 2 2 3 3 2 2 3 3 3 3 3 3 3 3 2 0 -1 -2 -2 -1
10 9 8 7 5 5 5 5 5 5 5 5 5 5 4 3 3 3 3 2 2 2 2 2 2 2 2 2 2 2 3 3 4 4 4 4 3 3 2 1 0 -1 -1 -1 -1